Skip Page Navigation
NASA JPL Caltech
NASA Logo - Jet Propulsion Laboratory + View the NASA Portal
+ Center for Near-Earth Object Studies
JPL Home Earth Solar System Stars & Galaxies Technology
JPL Solar System Dynamics
BODIES ORBITS EPHEMERIDES TOOLS PHYSICAL DATA DISCOVERY FAQ SITE MAP
IMPORTANT: The SSD Announcement email list is now available. Major changes are coming in the near future, including possible hostname and/or URL changes. To be notified of such changes, subscribe to this email list.

Please visit this page for more details.


JPL Small-Body Database Browser
Search: [ help ]  
214877 (2007 RY110)
Classification: Main-belt Asteroid          SPK-ID: 2214877
Ephemeris | Orbit Diagram | Orbital Elements | Mission Design | Physical Parameters | Discovery Circumstances ]

[ show orbit diagram ]
Orbital Elements at Epoch 2458600.5 (2019-Apr-27.0) TDB
Reference: JPL 16 (heliocentric ecliptic J2000)
 Element Value Uncertainty (1-sigma)   Units 
e .1787574378637598 4.2263e-08  
a 2.256731367689873 1.3895e-08 au
q 1.853323850454853 9.754e-08 au
i 5.783227064277718 5.3455e-06 deg
node 185.8819876722029 4.0087e-05 deg
peri 243.5490289831689 4.2784e-05 deg
M 103.0588524465249 1.435e-05 deg
tp 2458246.012417561969
(2018-May-07.51241756)
4.7931e-05 TDB
period 1238.278193946591
3.39
1.1436e-05
3.131e-08
d
yr
n .2907262695571036 2.685e-09 deg/d
Q 2.660138884924894 1.6378e-08 au
  Orbit Determination Parameters
   # obs. used (total)      367  
   data-arc span      6261 days (17.14 yr)  
   first obs. used      2002-03-10  
   last obs. used      2019-05-01  
   planetary ephem.      DE431  
   SB-pert. ephem.      SB431-N16  
   condition code      0  
   norm. resid. RMS      .61658  
   source      ORB  
   producer      Otto Matic  
   solution date      2019-Jul-14 09:31:11  

Additional Information
 Earth MOID = .875415 au 
 Jupiter MOID = 2.64616 au 
 T_jup = 3.595 
[ show covariance matrix ]

Ephemeris | Orbit Diagram | Orbital Elements | Mission Design | Physical Parameters | Discovery Circumstances ]

Physical Parameter Table
Parameter Symbol Value Units Sigma Reference Notes
absolute magnitude H 17.1   n/a MPO433405  

214877 (2007 RY110)          Discovered 2007-Sep-11 by Mt. Lemmon Survey at Mount Lemmon
Reference: 20090509/Numbers.arcLast Updated: 2009-05-11

Alternate Designations
 2007 RY110 = 2002 EC120 
Ephemeris | Orbit Diagram | Orbital Elements | Mission Design | Physical Parameters | Discovery Circumstances ]
ABOUT SSD CREDITS/AWARDS PRIVACY/COPYRIGHT GLOSSARY LINKS
FirstGov 2019-Dec-11 19:44 UT
(server date/time)  
NASA Home Page
Site Manager:   Ryan S. Park
Webmaster  Alan B. Chamberlin